Portada
METAR-TAF:

METAR-TAF

Aeroports :

Tòquio Heliport, Japó

latitud: 35-38N, longitud: 139-51E, altitud: 5 m

Observació

L'informe es va fer fa 7 hores i 32 minuts, a les 07:00 UTC
Vent 14 kt del Est/Nord-Est
Temperatura 28°C
Humitat 66%
Pressió 1007 hPa
Visibilitat 10 km o més
Escasses núvols a una alçada de 3000 ft
Cel ennuvolat a una alçada de 5000 ft

METAR: RJTI 150700Z 06014KT 9999 FEW030 BKN050 28/21 Q1007

Hora: 23:32 (14:32 UTC)


TAF: manca

Observacions i pronòstics meteorològics de més de 4000 aeroports (METAR i TAF).

Les estacions disponibles són els punts grocs i vermells al mapa.

Posi el ratolí al punt desitjat per veure el nom de l'estació.

Feu clic per veure les observacions i els pronòstics meteorològics.

Per canviar el mapa: feu clic els botons verds amb una creu de color negre per apropar; al botó verd amb un guió per allunyar la imatge; o en les fletxes verdes per a mapes adjacents.


METAR-TAF: